Location: Bourg-d�Oueil
(42.8588°N, 0.4991°E)
Time: 20:11:06
(UTC+00:00)

Cosmos 1867 - Pass Details

Date: 16 June 2021
Orbit: 773 x 803 km, 65.0° (Epoch: 02 August)

Event Time Altitude Azimuth Distance (km) Brightness Sun altitude
Rises 23:24:09 0° 324° (NW) 3,320 7.8 -23.3°
Reaches altitude 10° 23:26:35 10° 322° (NW) 2,386 6.9 -23.3°
Maximum altitude 23:32:03 69° 240° (WSW) 856 3.6 -23.5°
Enters shadow 23:32:53 59° 190° (S) 921 3.5 -23.5°
